Location: *
(46.4000°N, 12.6667°E)
Time: 17:50:02
(UTC+00:00)

CARTOSAT-1 - Pass Details

Date: 09 April 2020
Orbit: 616 x 619 km, 97.8° (Epoch: 29 May)

Event Time Altitude Azimuth Distance (km) Brightness Sun altitude
Exits shadow 20:39:34 57° 10° (N) 731 4.0 -26.0°
Drops below altitude 10° 20:43:07 10° 350° (N) 1,996 6.9 -26.5°
Sets 20:45:19 0° 349° (N) 2,907 7.9 -26.7°
